| time (UTC) | temp C | wind direction | speed KPH | gust KPH | rain 1hr cm | rain 24hr cm | rain mn cm | humidity % | barometer mb |
| 20260505122510 | 13 | 135 | 0.0 | 0.0 | 0.00 | 0.00 | 0.00 | 59 | 1005.5 |
| 20260505122010 | 13 | 135 | 0.0 | 0.0 | 0.00 | 0.00 | 0.00 | 59 | 1005.5 |
| 20260505121509 | 13 | 135 | 0.0 | 0.0 | 0.00 | 0.00 | 0.00 | 59 | 1005.3 |
| 20260505121010 | 13 | 135 | 0.0 | 0.0 | 0.00 | 0.00 | 0.00 | 59 | 1005.3 |
| 20260505120510 | 13 | 135 | 0.0 | 0.0 | 0.00 | 0.00 | 0.00 | 59 | 1005.3 |
| 20260505120010 | 13 | 135 | 0.0 | 0.0 | 0.00 | 0.00 | 0.00 | 51 | 1005.3 |
| 20260505115510 | 13 | 135 | 0.0 | 0.0 | 0.00 | 0.00 | 0.00 | 51 | 1005.4 |
| 20260505115010 | 13 | 135 | 0.0 | 0.0 | 0.00 | 0.00 | 0.00 | 51 | 1005.4 |
| 20260505114510 | 13 | 135 | 0.0 | 0.0 | 0.00 | 0.00 | 0.00 | 51 | 1005.4 |
| 20260505114009 | 13 | 135 | 0.0 | 0.0 | 0.00 | 0.00 | 0.00 | 51 | 1005.4 |
| 20260505113010 | 13 | 135 | 0.0 | 0.0 | 0.00 | 0.00 | 0.00 | 51 | 1005.4 |
| 20260505111510 | 13 | 135 | 0.0 | 0.0 | 0.00 | 0.00 | 0.00 | 51 | 1005.4 |
| 20260505111010 | 13 | 135 | 0.0 | 0.0 | 0.00 | 0.00 | 0.00 | 51 | 1005.4 |
| 20260505110510 | 13 | 135 | 0.0 | 0.0 | 0.00 | 0.00 | 0.00 | 51 | 1005.4 |
| 20260505102010 | 14 | 135 | 0.0 | 0.0 | 0.00 | 0.00 | 0.00 | 49 | 1005.6 |
| 20260505101510 | 14 | 135 | 0.0 | 0.0 | 0.00 | 0.00 | 0.00 | 49 | 1005.9 |
| 20260505101010 | 14 | 135 | 0.0 | 0.0 | 0.00 | 0.00 | 0.00 | 49 | 1005.9 |
| 20260505100510 | 14 | 135 | 0.0 | 0.0 | 0.00 | 0.00 | 0.00 | 49 | 1005.9 |
| 20260505100009 | 14 | 135 | 0.0 | 0.0 | 0.00 | 0.00 | 0.00 | 49 | 1005.9 |
| 20260505095509 | 14 | 135 | 0.0 | 0.0 | 0.00 | 0.00 | 0.00 | 49 | 1005.9 |
| 20260505095009 | 14 | 135 | 0.0 | 0.0 | 0.00 | 0.00 | 0.00 | 49 | 1005.9 |
| 20260505094510 | 14 | 135 | 0.0 | 0.0 | 0.00 | 0.00 | 0.00 | 49 | 1005.9 |
| 20260505094010 | 14 | 135 | 0.0 | 0.0 | 0.00 | 0.00 | 0.00 | 49 | 1005.9 |
| 20260505093509 | 14 | 135 | 0.0 | 0.0 | 0.00 | 0.00 | 0.00 | 49 | 1006.1 |
| 20260505093009 | 14 | 135 | 0.0 | 0.0 | 0.00 | 0.00 | 0.00 | 49 | 1006.1 |
| 20260505092509 | 14 | 135 | 0.0 | 0.0 | 0.00 | 0.00 | 0.00 | 49 | 1006.1 |
| 20260505092010 | 14 | 135 | 0.0 | 0.0 | 0.00 | 0.00 | 0.00 | 49 | 1006.1 |
| 20260505091510 | 14 | 135 | 0.0 | 0.0 | 0.00 | 0.00 | 0.00 | 49 | 1006.3 |
| 20260505091010 | 14 | 135 | 0.0 | 0.0 | 0.00 | 0.00 | 0.00 | 49 | 1006.3 |
| 20260505090509 | 14 | 135 | 0.0 | 0.0 | 0.00 | 0.00 | 0.00 | 49 | 1006.3 |
| 20260505090009 | 14 | 135 | 0.0 | 0.0 | 0.00 | 0.00 | 0.00 | 54 | 1006.3 |
| 20260505085510 | 14 | 135 | 0.0 | 0.0 | 0.00 | 0.00 | 0.00 | 54 | 1006.4 |
| 20260505084509 | 14 | 135 | 0.0 | 0.0 | 0.00 | 0.00 | 0.00 | 54 | 1006.4 |
| 20260505084010 | 14 | 135 | 0.0 | 0.0 | 0.00 | 0.00 | 0.00 | 54 | 1006.4 |
| 20260505083510 | 14 | 135 | 0.0 | 0.0 | 0.00 | 0.00 | 0.00 | 54 | 1006.3 |
| 20260505083010 | 14 | 135 | 0.0 | 0.0 | 0.00 | 0.00 | 0.00 | 54 | 1006.3 |
| 20260505082509 | 14 | 135 | 0.0 | 0.0 | 0.00 | 0.00 | 0.00 | 54 | 1006.3 |
| 20260505082009 | 14 | 135 | 0.0 | 0.0 | 0.00 | 0.00 | 0.00 | 54 | 1006.3 |
| 20260505081510 | 14 | 135 | 0.0 | 0.0 | 0.00 | 0.00 | 0.00 | 54 | 1006.6 |
| 20260505081010 | 14 | 135 | 0.0 | 0.0 | 0.00 | 0.00 | 0.00 | 54 | 1006.6 |
| 20260505080509 | 14 | 135 | 0.0 | 0.0 | 0.00 | 0.00 | 0.00 | 54 | 1006.6 |
| 20260505080009 | 14 | 135 | 0.0 | 0.0 | 0.00 | 0.00 | 0.00 | 53 | 1006.6 |
| 20260505075509 | 14 | 135 | 0.0 | 0.0 | 0.00 | 0.00 | 0.00 | 53 | 1006.6 |
| 20260505075009 | 14 | 135 | 0.0 | 0.0 | 0.00 | 0.00 | 0.00 | 53 | 1006.6 |
| 20260505074509 | 14 | 135 | 0.0 | 0.0 | 0.00 | 0.00 | 0.00 | 53 | 1006.6 |
| 20260505074009 | 14 | 135 | 0.0 | 0.0 | 0.00 | 0.00 | 0.00 | 53 | 1006.6 |
| 20260505073510 | 14 | 135 | 0.0 | 0.0 | 0.00 | 0.00 | 0.00 | 53 | 1006.8 |
| 20260505073009 | 14 | 135 | 0.0 | 0.0 | 0.00 | 0.00 | 0.00 | 53 | 1006.8 |
| 20260505072509 | 14 | 135 | 0.0 | 0.0 | 0.00 | 0.00 | 0.00 | 53 | 1006.8 |
| 20260505071510 | 14 | 135 | 0.0 | 0.0 | 0.00 | 0.00 | 0.00 | 53 | 1007.1 |
| 20260505071010 | 14 | 135 | 0.0 | 0.0 | 0.00 | 0.00 | 0.00 | 53 | 1007.1 |
| 20260505070510 | 14 | 135 | 0.0 | 0.0 | 0.00 | 0.00 | 0.00 | 53 | 1007.1 |
| 20260505065509 | 14 | 135 | 0.0 | 0.0 | 0.00 | 0.00 | 0.00 | 46 | 1007.1 |
| 20260505065009 | 14 | 135 | 0.0 | 0.0 | 0.00 | 0.00 | 0.00 | 46 | 1007.1 |
| 20260505064009 | 14 | 135 | 0.0 | 0.0 | 0.00 | 0.00 | 0.00 | 46 | 1007.1 |
| 20260505063509 | 15 | 135 | 0.0 | 0.0 | 0.00 | 0.00 | 0.00 | 46 | 1006.8 |
| 20260505063009 | 15 | 135 | 0.0 | 0.0 | 0.00 | 0.00 | 0.00 | 46 | 1006.8 |
| 20260505062509 | 15 | 135 | 0.0 | 0.0 | 0.00 | 0.00 | 0.00 | 46 | 1006.8 |
| 20260505062009 | 15 | 135 | 0.0 | 0.0 | 0.00 | 0.00 | 0.00 | 46 | 1006.8 |
| 20260505061009 | 15 | 135 | 0.0 | 0.0 | 0.00 | 0.00 | 0.00 | 46 | 1006.5 |
| 20260505060009 | 15 | 135 | 0.0 | 0.0 | 0.00 | 0.00 | 0.00 | 37 | 1006.5 |
| 20260505055509 | 16 | 135 | 0.0 | 0.0 | 0.00 | 0.00 | 0.00 | 37 | 1006.1 |
| 20260505055009 | 16 | 135 | 0.0 | 0.0 | 0.00 | 0.00 | 0.00 | 37 | 1006.1 |
| 20260505054009 | 16 | 135 | 0.0 | 0.0 | 0.00 | 0.00 | 0.00 | 37 | 1006.1 |
| 20260505053509 | 16 | 135 | 0.0 | 0.0 | 0.00 | 0.00 | 0.00 | 37 | 1005.9 |
| 20260505053009 | 16 | 135 | 0.0 | 0.0 | 0.00 | 0.00 | 0.00 | 37 | 1005.9 |
| 20260505052509 | 16 | 135 | 0.0 | 0.0 | 0.00 | 0.00 | 0.00 | 37 | 1005.9 |
| 20260505052009 | 16 | 135 | 0.0 | 0.0 | 0.00 | 0.00 | 0.00 | 37 | 1005.9 |
| 20260505051509 | 16 | 135 | 0.0 | 0.0 | 0.00 | 0.00 | 0.00 | 37 | 1005.8 |
| 20260505051009 | 16 | 135 | 0.0 | 0.0 | 0.00 | 0.00 | 0.00 | 37 | 1005.8 |
| 20260505041009 | 17 | 135 | 0.0 | 0.0 | 0.00 | 0.00 | 0.00 | 33 | 1005.6 |
| 20260505040509 | 17 | 135 | 0.0 | 0.0 | 0.00 | 0.00 | 0.00 | 33 | 1005.6 |
| 20260505040009 | 17 | 135 | 0.0 | 0.0 | 0.00 | 0.00 | 0.00 | 23 | 1005.6 |
| 20260505035508 | 18 | 135 | 0.0 | 0.0 | 0.00 | 0.00 | 0.00 | 23 | 1005.5 |
| 20260505034508 | 18 | 135 | 0.0 | 0.0 | 0.00 | 0.00 | 0.00 | 23 | 1005.5 |
| 20260505034009 | 18 | 135 | 0.0 | 0.0 | 0.00 | 0.00 | 0.00 | 23 | 1005.5 |
| 20260505033508 | 18 | 135 | 0.0 | 0.0 | 0.00 | 0.00 | 0.00 | 23 | 1005.1 |
| 20260505032508 | 18 | 135 | 0.0 | 0.0 | 0.00 | 0.00 | 0.00 | 23 | 1005.1 |
| 20260505032009 | 18 | 135 | 0.0 | 0.0 | 0.00 | 0.00 | 0.00 | 23 | 1005.1 |
| 20260505031508 | 18 | 135 | 0.0 | 0.0 | 0.00 | 0.00 | 0.00 | 23 | 1004.7 |
| 20260505030509 | 18 | 135 | 0.0 | 0.0 | 0.00 | 0.00 | 0.00 | 23 | 1004.7 |
| 20260505030008 | 18 | 135 | 0.0 | 0.0 | 0.00 | 0.00 | 0.00 | 23 | 1004.7 |
| 20260505025509 | 18 | 135 | 0.0 | 0.0 | 0.00 | 0.00 | 0.00 | 23 | 1004.4 |
| 20260505025009 | 18 | 135 | 0.0 | 0.0 | 0.00 | 0.00 | 0.00 | 23 | 1004.4 |
| 20260505024508 | 19 | 135 | 0.0 | 0.0 | 0.00 | 0.00 | 0.00 | 23 | 1004.4 |
| 20260505024009 | 19 | 135 | 0.0 | 0.0 | 0.00 | 0.00 | 0.00 | 23 | 1004.4 |
| 20260505023509 | 19 | 135 | 0.0 | 0.0 | 0.00 | 0.00 | 0.00 | 23 | 1004.6 |
| 20260505023009 | 19 | 135 | 0.0 | 0.0 | 0.00 | 0.00 | 0.00 | 23 | 1004.6 |
| 20260505022509 | 20 | 135 | 0.0 | 0.0 | 0.00 | 0.00 | 0.00 | 23 | 1004.6 |
| 20260505022009 | 20 | 135 | 0.0 | 0.0 | 0.00 | 0.00 | 0.00 | 23 | 1004.6 |
| 20260505021509 | 20 | 135 | 0.0 | 0.0 | 0.00 | 0.00 | 0.00 | 23 | 1004.4 |
| 20260505021009 | 20 | 135 | 0.0 | 0.0 | 0.00 | 0.00 | 0.00 | 23 | 1004.4 |
| 20260505020509 | 20 | 135 | 0.0 | 0.0 | 0.00 | 0.00 | 0.00 | 23 | 1004.4 |
| 20260505020008 | 20 | 135 | 0.0 | 0.0 | 0.00 | 0.00 | 0.00 | 20 | 1004.4 |
| 20260505015508 | 21 | 135 | 0.0 | 0.0 | 0.00 | 0.00 | 0.00 | 20 | 1004.7 |
| 20260505015008 | 21 | 135 | 0.0 | 0.0 | 0.00 | 0.00 | 0.00 | 20 | 1004.7 |
| 20260505014508 | 21 | 135 | 0.0 | 0.0 | 0.00 | 0.00 | 0.00 | 20 | 1004.7 |
| 20260505013509 | 21 | 135 | 0.0 | 0.0 | 0.00 | 0.00 | 0.00 | 20 | 1004.9 |
| 20260505012509 | 21 | 135 | 0.0 | 0.0 | 0.00 | 0.00 | 0.00 | 20 | 1004.9 |
| 20260505012009 | 21 | 135 | 0.0 | 0.0 | 0.00 | 0.00 | 0.00 | 20 | 1004.9 |
| 20260505011509 | 22 | 135 | 0.0 | 0.0 | 0.00 | 0.00 | 0.00 | 20 | 1005.1 |
| 20260505011009 | 22 | 135 | 0.0 | 0.0 | 0.00 | 0.00 | 0.00 | 20 | 1005.1 |
| 20260505010509 | 22 | 135 | 0.0 | 0.0 | 0.00 | 0.00 | 0.00 | 20 | 1005.1 |
| 20260505010009 | 22 | 135 | 0.0 | 0.0 | 0.00 | 0.00 | 0.00 | 21 | 1005.1 |
| 20260505005508 | 22 | 135 | 0.0 | 0.0 | 0.00 | 0.00 | 0.00 | 21 | 1005.2 |
| 20260505004509 | 22 | 135 | 0.0 | 0.0 | 0.00 | 0.00 | 0.00 | 21 | 1005.2 |
| 20260505004008 | 22 | 135 | 0.0 | 0.0 | 0.00 | 0.00 | 0.00 | 21 | 1005.2 |
| 20260505003508 | 22 | 135 | 0.0 | 0.0 | 0.00 | 0.00 | 0.00 | 21 | 1005.4 |
| 20260505003008 | 22 | 135 | 0.0 | 0.0 | 0.00 | 0.00 | 0.00 | 21 | 1005.4 |
| 20260505002508 | 23 | 135 | 0.0 | 0.0 | 0.00 | 0.00 | 0.00 | 21 | 1005.4 |
| 20260505002009 | 23 | 135 | 0.0 | 0.0 | 0.00 | 0.00 | 0.00 | 21 | 1005.4 |
| 20260505001508 | 23 | 135 | 0.0 | 0.0 | 0.00 | 0.00 | 0.00 | 21 | 1005.3 |
| 20260505001008 | 23 | 135 | 0.0 | 0.0 | 0.00 | 0.00 | 0.00 | 21 | 1005.3 |
| 20260505000509 | 23 | 135 | 0.0 | 0.0 | 0.00 | 0.00 | 0.00 | 21 | 1005.3 |
| 20260505000009 | 23 | 135 | 0.0 | 0.0 | 0.00 | 0.00 | 0.00 | 21 | 1005.3 |
| 20260504235509 | 23 | 135 | 0.0 | 0.0 | 0.00 | 0.00 | 0.00 | 21 | 1005.3 |
| 20260504235009 | 22 | 135 | 0.0 | 0.0 | 0.00 | 0.00 | 0.00 | 21 | 1005.3 |
| 20260504234508 | 22 | 135 | 0.0 | 0.0 | 0.00 | 0.00 | 0.00 | 21 | 1005.3 |
| 20260504234009 | 23 | 135 | 0.0 | 0.0 | 0.00 | 0.00 | 0.00 | 21 | 1005.3 |
| 20260504233509 | 23 | 135 | 0.0 | 0.0 | 0.00 | 0.00 | 0.00 | 21 | 1005.4 |
| 20260504233009 | 23 | 135 | 0.0 | 0.0 | 0.00 | 0.00 | 0.00 | 21 | 1005.4 |
| 20260504232508 | 23 | 135 | 0.0 | 0.0 | 0.00 | 0.00 | 0.00 | 21 | 1005.4 |
| 20260504232008 | 23 | 135 | 0.0 | 0.0 | 0.00 | 0.00 | 0.00 | 21 | 1005.4 |
| 20260504231509 | 23 | 135 | 0.0 | 0.0 | 0.00 | 0.00 | 0.00 | 21 | 1005.6 |
| 20260504231008 | 23 | 135 | 0.0 | 0.0 | 0.00 | 0.00 | 0.00 | 21 | 1005.6 |
| 20260504230509 | 23 | 135 | 0.0 | 0.0 | 0.00 | 0.00 | 0.00 | 21 | 1005.6 |
| 20260504230009 | 23 | 135 | 0.0 | 0.0 | 0.00 | 0.00 | 0.00 | 18 | 1005.6 |
| 20260504225509 | 23 | 135 | 0.0 | 0.0 | 0.00 | 0.00 | 0.00 | 18 | 1005.5 |
| 20260504224508 | 23 | 135 | 0.0 | 0.0 | 0.00 | 0.00 | 0.00 | 18 | 1005.5 |
| 20260504224009 | 23 | 135 | 0.0 | 0.0 | 0.00 | 0.00 | 0.00 | 18 | 1005.5 |
| 20260504223509 | 23 | 135 | 0.0 | 0.0 | 0.00 | 0.00 | 0.00 | 18 | 1005.4 |
| 20260504223009 | 23 | 135 | 0.0 | 0.0 | 0.00 | 0.00 | 0.00 | 18 | 1005.4 |
| 20260504222509 | 23 | 135 | 0.0 | 0.0 | 0.00 | 0.00 | 0.00 | 18 | 1005.4 |
| 20260504222009 | 24 | 135 | 0.0 | 0.0 | 0.00 | 0.00 | 0.00 | 18 | 1005.4 |
| 20260504221509 | 23 | 135 | 0.0 | 0.0 | 0.00 | 0.00 | 0.00 | 18 | 1005.3 |
| 20260504221009 | 23 | 135 | 0.0 | 0.0 | 0.00 | 0.00 | 0.00 | 18 | 1005.3 |
| 20260504220508 | 23 | 135 | 0.0 | 0.0 | 0.00 | 0.00 | 0.00 | 18 | 1005.3 |
| 20260504220008 | 24 | 135 | 0.0 | 0.0 | 0.00 | 0.00 | 0.00 | 23 | 1005.3 |
| 20260504215508 | 24 | 135 | 0.0 | 0.0 | 0.00 | 0.00 | 0.00 | 23 | 1005.8 |
| 20260504215008 | 24 | 135 | 0.0 | 0.0 | 0.00 | 0.00 | 0.00 | 23 | 1005.8 |
| 20260504214508 | 24 | 135 | 0.0 | 0.0 | 0.00 | 0.00 | 0.00 | 23 | 1005.8 |
| 20260504214008 | 24 | 135 | 0.0 | 0.0 | 0.00 | 0.00 | 0.00 | 23 | 1005.8 |
| 20260504213508 | 24 | 135 | 0.0 | 0.0 | 0.00 | 0.00 | 0.00 | 23 | 1006.1 |
| 20260504213009 | 24 | 135 | 0.0 | 0.0 | 0.00 | 0.00 | 0.00 | 23 | 1006.1 |
| 20260504212508 | 24 | 135 | 0.0 | 0.0 | 0.00 | 0.00 | 0.00 | 23 | 1006.1 |
| 20260504212008 | 23 | 135 | 0.0 | 0.0 | 0.00 | 0.00 | 0.00 | 23 | 1006.1 |
| 20260504211507 | 24 | 135 | 0.0 | 0.0 | 0.00 | 0.00 | 0.00 | 23 | 1006.0 |
| 20260504211008 | 24 | 135 | 0.0 | 0.0 | 0.00 | 0.00 | 0.00 | 23 | 1006.0 |
| 20260504210509 | 23 | 135 | 0.0 | 0.0 | 0.00 | 0.00 | 0.00 | 23 | 1006.0 |
| 20260504210007 | 23 | 135 | 0.0 | 0.0 | 0.00 | 0.00 | 0.00 | 23 | 1006.0 |
| 20260504205508 | 23 | 135 | 0.0 | 0.0 | 0.00 | 0.00 | 0.00 | 23 | 1006.3 |
| 20260504204508 | 23 | 135 | 0.0 | 0.0 | 0.00 | 0.00 | 0.00 | 23 | 1006.3 |
| 20260504204008 | 24 | 135 | 0.0 | 0.0 | 0.00 | 0.00 | 0.00 | 23 | 1006.3 |
| 20260504203508 | 23 | 135 | 0.0 | 0.0 | 0.00 | 0.00 | 0.00 | 23 | 1006.5 |
| 20260504203008 | 24 | 135 | 0.0 | 0.0 | 0.00 | 0.00 | 0.00 | 23 | 1006.5 |
| 20260504202508 | 24 | 135 | 0.0 | 0.0 | 0.00 | 0.00 | 0.00 | 23 | 1006.5 |
| 20260504200508 | 23 | 135 | 0.0 | 0.0 | 0.00 | 0.00 | 0.00 | 23 | 1006.6 |
| 20260504200008 | 23 | 135 | 0.0 | 0.0 | 0.00 | 0.00 | 0.00 | 25 | 1006.6 |
| 20260504195508 | 23 | 135 | 0.0 | 0.0 | 0.00 | 0.00 | 0.00 | 25 | 1006.6 |
| 20260504195008 | 23 | 135 | 0.0 | 0.0 | 0.00 | 0.00 | 0.00 | 25 | 1006.6 |
| 20260504194507 | 23 | 135 | 0.0 | 0.0 | 0.00 | 0.00 | 0.00 | 25 | 1006.6 |
| 20260504194008 | 23 | 135 | 0.0 | 0.0 | 0.00 | 0.00 | 0.00 | 25 | 1006.6 |
| 20260504192508 | 23 | 135 | 0.0 | 0.0 | 0.00 | 0.00 | 0.00 | 25 | 1006.7 |
| 20260504192008 | 23 | 135 | 0.0 | 0.0 | 0.00 | 0.00 | 0.00 | 25 | 1006.7 |
| 20260504191508 | 23 | 135 | 0.0 | 0.0 | 0.00 | 0.00 | 0.00 | 25 | 1006.8 |
| 20260504191008 | 22 | 135 | 0.0 | 0.0 | 0.00 | 0.00 | 0.00 | 25 | 1006.8 |
| 20260504190508 | 22 | 135 | 0.0 | 0.0 | 0.00 | 0.00 | 0.00 | 25 | 1006.8 |
| 20260504190008 | 22 | 135 | 0.0 | 0.0 | 0.00 | 0.00 | 0.00 | 28 | 1006.8 |
| 20260504185508 | 22 | 135 | 0.0 | 0.0 | 0.00 | 0.00 | 0.00 | 28 | 1006.7 |
| 20260504185007 | 22 | 135 | 0.0 | 0.0 | 0.00 | 0.00 | 0.00 | 28 | 1006.7 |
| 20260504184508 | 22 | 135 | 0.0 | 0.0 | 0.00 | 0.00 | 0.00 | 28 | 1006.7 |
| 20260504183507 | 22 | 135 | 0.0 | 0.0 | 0.00 | 0.00 | 0.00 | 28 | 1006.9 |
| 20260504183008 | 22 | 135 | 0.0 | 0.0 | 0.00 | 0.00 | 0.00 | 28 | 1006.9 |
| 20260504182508 | 22 | 135 | 0.0 | 0.0 | 0.00 | 0.00 | 0.00 | 28 | 1006.9 |
| 20260504182008 | 22 | 135 | 0.0 | 0.0 | 0.00 | 0.00 | 0.00 | 28 | 1006.9 |
| 20260504181508 | 22 | 135 | 0.0 | 0.0 | 0.00 | 0.00 | 0.00 | 28 | 1007.1 |
| 20260504180508 | 22 | 135 | 0.0 | 0.0 | 0.00 | 0.00 | 0.00 | 28 | 1007.1 |
| 20260504180008 | 22 | 135 | 0.0 | 0.0 | 0.00 | 0.00 | 0.00 | 31 | 1007.1 |
| 20260504175507 | 22 | 135 | 0.0 | 0.0 | 0.00 | 0.00 | 0.00 | 31 | 1007.0 |
| 20260504175008 | 22 | 135 | 0.0 | 0.0 | 0.00 | 0.00 | 0.00 | 31 | 1007.0 |
| 20260504174508 | 22 | 135 | 0.0 | 0.0 | 0.00 | 0.00 | 0.00 | 31 | 1007.0 |
| 20260504174009 | 22 | 135 | 0.0 | 0.0 | 0.00 | 0.00 | 0.00 | 31 | 1007.0 |
| 20260504173508 | 21 | 135 | 0.0 | 0.0 | 0.00 | 0.00 | 0.00 | 31 | 1007.1 |
| 20260504173008 | 21 | 135 | 0.0 | 0.0 | 0.00 | 0.00 | 0.00 | 31 | 1007.1 |
| 20260504172508 | 21 | 135 | 0.0 | 0.0 | 0.00 | 0.00 | 0.00 | 31 | 1007.1 |
| 20260504172008 | 22 | 135 | 0.0 | 0.0 | 0.00 | 0.00 | 0.00 | 31 | 1007.1 |
| 20260504171507 | 22 | 135 | 0.0 | 0.0 | 0.00 | 0.00 | 0.00 | 31 | 1007.1 |
| 20260504171007 | 21 | 135 | 0.0 | 0.0 | 0.00 | 0.00 | 0.00 | 31 | 1007.1 |
| 20260504170508 | 21 | 135 | 0.0 | 0.0 | 0.00 | 0.00 | 0.00 | 31 | 1007.1 |
| 20260504151008 | 18 | 135 | 0.0 | 0.0 | 0.00 | 0.00 | 0.00 | 34 | 1006.5 |
| 20260504141007 | 18 | 135 | 0.0 | 0.0 | 0.00 | 0.00 | 0.00 | 39 | 1005.8 |
| 20260504140508 | 17 | 135 | 0.0 | 0.0 | 0.00 | 0.00 | 0.00 | 39 | 1005.8 |
| 20260504130508 | 12 | 135 | 0.0 | 0.0 | 0.00 | 0.00 | 0.00 | 35 | 1006.3 |